Voltar ao catálogo

FENGYUN 1C DEB

AtivoSSO
NORAD 29848·DEBRIS·🇨🇳 China

Lançado May 10, 1999 de Taiyuan Satellite Launch Center

Loading…

Próximas Passagens (próximas 24 horas)

TLE

AtualizadoSource: Space-Track

Época: Sep 14, 2026, 09:31 UTC

1 29848U 99025ES  26257.39713053  .00001515  00000-0  66137-3 0  9997
2 29848  98.2255 110.7098 0113622 207.7663 277.9974 14.21811330 10174

Acompanhe FENGYUN 1C DEB em tempo real com AllMySat

Download on the App Store